TimeMST,TemperatureF,Dew PointF,Humidity,Sea Level PressureIn,VisibilityMPH,Wind Direction,Wind SpeedMPH,Gust SpeedMPH,PrecipitationIn,Events,Conditions,WindDirDegrees,DateUTC
12:15 AM,73.4,12.2,10,29.85,9.0,NNW,11.5,-,N/A,,Clear,330,2013-04-28 07:15:00
12:35 AM,77.0,12.2,9,29.85,10.0,NW,12.7,-,N/A,,Clear,320,2013-04-28 07:35:00
12:55 AM,73.4,14.0,10,29.85,10.0,NW,10.4,-,N/A,,Clear,310,2013-04-28 07:55:00
1:15 AM,69.8,23.0,17,29.86,10.0,East,4.6,-,N/A,,Clear,80,2013-04-28 08:15:00
1:35 AM,71.6,17.6,13,29.86,10.0,North,6.9,-,N/A,,Clear,350,2013-04-28 08:35:00
1:55 AM,71.6,12.2,10,29.85,10.0,NNE,5.8,-,N/A,,Clear,30,2013-04-28 08:55:00
2:15 AM,71.6,15.8,12,29.86,10.0,Calm,Calm,-,N/A,,Clear,0,2013-04-28 09:15:00
2:35 AM,69.8,15.8,13,29.85,10.0,Calm,Calm,-,N/A,,Clear,0,2013-04-28 09:35:00
2:55 AM,71.6,15.8,12,29.85,10.0,Calm,Calm,-,N/A,,Clear,0,2013-04-28 09:55:00
3:15 AM,71.6,12.2,10,29.85,10.0,Calm,Calm,-,N/A,,Clear,0,2013-04-28 10:15:00
3:35 AM,69.8,12.2,11,29.85,10.0,NNW,4.6,-,N/A,,Clear,330,2013-04-28 10:35:00
3:55 AM,68.0,12.2,12,29.85,10.0,Calm,Calm,-,N/A,,Clear,0,2013-04-28 10:55:00
4:15 AM,66.2,14.0,13,29.85,10.0,NNW,4.6,-,N/A,,Clear,340,2013-04-28 11:15:00
4:35 AM,60.8,10.4,14,29.85,10.0,NNE,4.6,-,N/A,,Clear,30,2013-04-28 11:35:00
4:55 AM,60.8,10.4,14,29.85,10.0,NE,6.9,-,N/A,,Clear,40,2013-04-28 11:55:00
5:15 AM,64.4,14.0,14,29.85,10.0,ENE,5.8,-,N/A,,Clear,60,2013-04-28 12:15:00
5:35 AM,62.6,12.2,14,29.86,10.0,East,3.5,-,N/A,,Clear,80,2013-04-28 12:35:00
6:15 AM,64.4,14.0,14,29.87,10.0,ENE,5.8,-,N/A,,Clear,60,2013-04-28 13:15:00
6:35 AM,66.2,12.2,12,29.87,10.0,NNE,6.9,-,N/A,,Clear,30,2013-04-28 13:35:00
6:55 AM,66.2,19.4,17,29.88,10.0,NNE,6.9,-,N/A,,Clear,20,2013-04-28 13:55:00
7:15 AM,69.8,12.2,11,29.88,10.0,NNW,4.6,-,N/A,,Clear,340,2013-04-28 14:15:00
7:35 AM,71.6,14.0,11,29.88,8.0,Calm,Calm,-,N/A,,Clear,0,2013-04-28 14:35:00
7:55 AM,75.2,14.0,10,29.88,9.0,Calm,Calm,-,N/A,,Clear,0,2013-04-28 14:55:00
8:15 AM,75.2,28.4,18,29.89,7.0,Calm,Calm,-,N/A,,Clear,0,2013-04-28 15:15:00
8:35 AM,77.0,24.8,14,29.89,9.0,SE,3.5,-,N/A,,Clear,140,2013-04-28 15:35:00
8:55 AM,77.0,28.4,17,29.89,9.0,Calm,Calm,-,N/A,,Clear,0,2013-04-28 15:55:00
9:15 AM,80.6,32.0,17,29.88,10.0,NE,3.5,-,N/A,,Clear,50,2013-04-28 16:15:00
9:35 AM,82.4,26.6,13,29.88,10.0,SSE,4.6,-,N/A,,Clear,150,2013-04-28 16:35:00
9:55 AM,84.2,23.0,11,29.89,6.0,South,3.5,-,N/A,,Clear,180,2013-04-28 16:55:00
10:15 AM,86.0,28.4,12,29.88,4.0,South,8.1,-,N/A,,Clear,170,2013-04-28 17:15:00
10:35 AM,87.8,30.2,13,29.88,10.0,ESE,11.5,-,N/A,,Clear,120,2013-04-28 17:35:00
10:55 AM,89.6,30.2,12,29.88,9.0,SE,10.4,-,N/A,,Clear,140,2013-04-28 17:55:00
11:15 AM,89.6,28.4,11,29.87,10.0,ESE,9.2,-,N/A,,Clear,110,2013-04-28 18:15:00
11:35 AM,89.6,23.0,9,29.87,10.0,SE,6.9,-,N/A,,Clear,140,2013-04-28 18:35:00
11:55 AM,89.6,24.8,10,29.86,10.0,South,5.8,-,N/A,,Clear,170,2013-04-28 18:55:00
12:15 PM,91.4,24.8,9,29.86,10.0,SE,6.9,-,N/A,,Clear,140,2013-04-28 19:15:00
12:35 PM,91.4,26.6,10,29.85,10.0,SE,5.8,-,N/A,,Clear,140,2013-04-28 19:35:00
12:55 PM,93.2,23.0,8,29.84,10.0,SE,5.8,-,N/A,,Clear,140,2013-04-28 19:55:00
1:15 PM,93.2,24.8,9,29.83,9.0,SSE,4.6,-,N/A,,Clear,160,2013-04-28 20:15:00
1:35 PM,95.0,17.6,6,29.82,10.0,SE,4.6,-,N/A,,Clear,130,2013-04-28 20:35:00
1:55 PM,95.0,17.6,6,29.81,9.0,SSE,6.9,-,N/A,,Clear,160,2013-04-28 20:55:00
2:15 PM,95.0,14.0,5,29.80,10.0,SW,6.9,-,N/A,,Clear,220,2013-04-28 21:15:00
2:35 PM,96.8,10.4,4,29.79,10.0,SW,5.8,-,N/A,,Clear,220,2013-04-28 21:35:00
2:55 PM,96.8,10.4,4,29.77,10.0,SSE,5.8,-,N/A,,Clear,150,2013-04-28 21:55:00
3:15 PM,96.8,10.4,4,29.76,10.0,Calm,Calm,-,N/A,,Clear,0,2013-04-28 22:15:00
3:35 PM,96.8,10.4,4,29.75,10.0,South,5.8,-,N/A,,Clear,190,2013-04-28 22:35:00
3:55 PM,96.8,17.6,6,29.74,10.0,SSE,8.1,-,N/A,,Clear,160,2013-04-28 22:55:00
4:15 PM,96.8,19.4,6,29.74,10.0,SSE,9.2,-,N/A,,Clear,160,2013-04-28 23:15:00
4:35 PM,96.8,23.0,7,29.73,10.0,South,8.1,-,N/A,,Clear,190,2013-04-28 23:35:00
4:55 PM,95.0,21.2,7,29.73,10.0,South,9.2,-,N/A,,Clear,180,2013-04-28 23:55:00
5:15 PM,96.8,14.0,5,29.72,10.0,WSW,8.1,-,N/A,,Clear,240,2013-04-29 00:15:00
5:35 PM,95.0,21.2,7,29.72,9.0,WSW,10.4,-,N/A,,Clear,240,2013-04-29 00:35:00
5:55 PM,95.0,23.0,8,29.71,10.0,South,5.8,-,N/A,,Clear,180,2013-04-29 00:55:00
6:15 PM,93.2,24.8,9,29.70,10.0,South,5.8,-,N/A,,Clear,180,2013-04-29 01:15:00
6:35 PM,91.4,28.4,10,29.71,10.0,South,6.9,-,N/A,,Clear,190,2013-04-29 01:35:00
6:55 PM,91.4,24.8,9,29.71,10.0,SSW,8.1,-,N/A,,Clear,210,2013-04-29 01:55:00
7:15 PM,89.6,23.0,9,29.71,10.0,SSW,5.8,-,N/A,,Clear,200,2013-04-29 02:15:00
7:35 PM,84.2,26.6,12,29.71,10.0,SSW,5.8,-,N/A,,Clear,210,2013-04-29 02:35:00
7:55 PM,86.0,24.8,11,29.71,10.0,SSW,4.6,-,N/A,,Clear,200,2013-04-29 02:55:00
8:15 PM,82.4,23.0,11,29.72,10.0,SW,5.8,-,N/A,,Clear,220,2013-04-29 03:15:00
8:35 PM,80.6,17.6,10,29.72,10.0,SW,8.1,-,N/A,,Clear,230,2013-04-29 03:35:00
8:55 PM,80.6,15.8,9,29.73,10.0,West,6.9,-,N/A,,Clear,260,2013-04-29 03:55:00
9:15 PM,80.6,14.0,8,29.74,10.0,WNW,6.9,-,N/A,,Clear,290,2013-04-29 04:15:00
9:35 PM,80.6,12.2,8,29.74,10.0,West,4.6,-,N/A,,Clear,260,2013-04-29 04:35:00
9:55 PM,80.6,14.0,8,29.74,10.0,WSW,5.8,-,N/A,,Clear,250,2013-04-29 04:55:00
10:15 PM,78.8,14.0,9,29.74,10.0,West,4.6,-,N/A,,Clear,270,2013-04-29 05:15:00
10:35 PM,77.0,14.0,9,29.74,10.0,West,4.6,-,N/A,,Clear,280,2013-04-29 05:35:00
10:55 PM,77.0,12.2,9,29.74,10.0,Calm,Calm,-,N/A,,Clear,0,2013-04-29 05:55:00
11:15 PM,75.2,12.2,9,29.74,10.0,NNE,4.6,-,N/A,,Clear,30,2013-04-29 06:15:00
11:35 PM,73.4,14.0,10,29.75,10.0,NNE,3.5,-,N/A,,Clear,20,2013-04-29 06:35:00
11:55 PM,71.6,14.0,11,29.75,10.0,NNE,4.6,-,N/A,,Clear,20,2013-04-29 06:55:00